| time (UTC) | temp C | wind direction | speed KPH | gust KPH | rain 1hr cm | rain 24hr cm | rain mn cm | humidity % | barometer mb |
| 20260504080917 | 18 | 50 | 4.8 | 0.0 | 0.00 | 0.00 | 0.00 | 48 | 1015.7 |
| 20260504045917 | 7 | 225 | 6.4 | 0.0 | 0.00 | 0.00 | 0.00 | 81 | 1015.7 |
| 20260504044916 | 7 | 245 | 0.0 | 0.0 | 0.00 | 0.00 | 0.00 | 81 | 1015.7 |
| 20260504043917 | 7 | 150 | 0.0 | 0.0 | 0.00 | 0.00 | 0.00 | 81 | 1015.7 |
| 20260504042916 | 7 | 150 | 0.0 | 0.0 | 0.00 | 0.00 | 0.00 | 80 | 1015.7 |
| 20260504041916 | 7 | 148 | 0.0 | 0.0 | 0.00 | 0.00 | 0.00 | 79 | 1015.7 |
| 20260504040917 | 8 | 320 | 0.0 | 0.0 | 0.00 | 0.00 | 0.00 | 79 | 1015.8 |
| 20260504035916 | 8 | 325 | 0.0 | 0.0 | 0.00 | 0.00 | 0.00 | 78 | 1015.8 |
| 20260504034916 | 8 | 33 | 8.0 | 0.0 | 0.00 | 0.00 | 0.00 | 78 | 1015.8 |
| 20260504033916 | 8 | 325 | 6.4 | 0.0 | 0.00 | 0.00 | 0.00 | 78 | 1015.8 |
| 20260504032916 | 7 | 263 | 6.4 | 0.0 | 0.00 | 0.00 | 0.00 | 82 | 1015.8 |
| 20260504031916 | 7 | 168 | 0.0 | 0.0 | 0.00 | 0.00 | 0.00 | 81 | 1015.9 |
| 20260504030917 | 7 | 335 | 4.8 | 0.0 | 0.00 | 0.00 | 0.00 | 81 | 1016.0 |
| 20260504025916 | 7 | 315 | 4.8 | 0.0 | 0.00 | 0.00 | 0.00 | 80 | 1016.0 |
| 20260504024916 | 7 | 195 | 4.8 | 0.0 | 0.00 | 0.00 | 0.00 | 80 | 1016.1 |
| 20260504023917 | 7 | 318 | 0.0 | 0.0 | 0.00 | 0.00 | 0.00 | 79 | 1016.1 |
| 20260504022917 | 8 | 320 | 0.0 | 0.0 | 0.00 | 0.00 | 0.00 | 78 | 1016.1 |
| 20260504021917 | 8 | 320 | 0.0 | 0.0 | 0.00 | 0.00 | 0.00 | 77 | 1016.1 |
| 20260504020916 | 8 | 320 | 4.8 | 0.0 | 0.00 | 0.00 | 0.00 | 76 | 1016.1 |
| 20260504015917 | 8 | 230 | 0.0 | 0.0 | 0.00 | 0.00 | 0.00 | 75 | 1016.1 |
| 20260504014916 | 9 | 355 | 0.0 | 0.0 | 0.00 | 0.00 | 0.00 | 75 | 1016.1 |
| 20260504013917 | 10 | 350 | 0.0 | 0.0 | 0.00 | 0.00 | 0.00 | 74 | 1016.1 |
| 20260504012916 | 10 | 340 | 0.0 | 0.0 | 0.00 | 0.00 | 0.00 | 73 | 1016.1 |
| 20260504011917 | 10 | 18 | 0.0 | 0.0 | 0.00 | 0.00 | 0.00 | 71 | 1016.1 |
| 20260504010916 | 11 | 0 | 4.8 | 0.0 | 0.00 | 0.00 | 0.00 | 70 | 1016.0 |
| 20260504005916 | 11 | 325 | 9.7 | 0.0 | 0.00 | 0.00 | 0.00 | 69 | 1016.0 |
| 20260504004916 | 11 | 240 | 6.4 | 0.0 | 0.00 | 0.00 | 0.00 | 68 | 1016.0 |
| 20260504003916 | 11 | 273 | 4.8 | 0.0 | 0.00 | 0.00 | 0.00 | 68 | 1016.1 |
| 20260504002916 | 11 | 318 | 4.8 | 0.0 | 0.00 | 0.00 | 0.00 | 69 | 1016.1 |
| 20260504001917 | 11 | 315 | 6.4 | 0.0 | 0.00 | 0.00 | 0.00 | 68 | 1016.2 |
| 20260504000917 | 11 | 340 | 6.4 | 0.0 | 0.00 | 0.00 | 0.00 | 69 | 1016.3 |
| 20260503235916 | 11 | 355 | 4.8 | 0.0 | 0.00 | 0.00 | 0.00 | 70 | 1016.2 |
| 20260503234917 | 11 | 355 | 0.0 | 0.0 | 0.00 | 0.00 | 0.00 | 70 | 1016.2 |
| 20260503233917 | 11 | 0 | 0.0 | 0.0 | 0.00 | 0.00 | 0.00 | 69 | 1016.2 |
| 20260503232919 | 11 | 0 | 0.0 | 0.0 | 0.00 | 0.00 | 0.00 | 69 | 1016.2 |
| 20260503231916 | 11 | 335 | 0.0 | 0.0 | 0.00 | 0.00 | 0.00 | 68 | 1016.2 |
| 20260503230917 | 12 | 335 | 0.0 | 0.0 | 0.00 | 0.00 | 0.00 | 68 | 1016.2 |
| 20260503225917 | 12 | 335 | 0.0 | 0.0 | 0.00 | 0.00 | 0.00 | 67 | 1016.2 |
| 20260503224916 | 12 | 335 | 0.0 | 0.0 | 0.00 | 0.00 | 0.00 | 67 | 1016.2 |
| 20260503223916 | 12 | 340 | 0.0 | 0.0 | 0.00 | 0.00 | 0.00 | 66 | 1016.3 |
| 20260503222917 | 12 | 350 | 0.0 | 0.0 | 0.00 | 0.00 | 0.00 | 67 | 1016.2 |
| 20260503221916 | 12 | 310 | 0.0 | 0.0 | 0.00 | 0.00 | 0.00 | 67 | 1016.3 |
| 20260503220917 | 12 | 345 | 0.0 | 0.0 | 0.00 | 0.00 | 0.00 | 66 | 1016.2 |
| 20260503215916 | 12 | 310 | 0.0 | 0.0 | 0.00 | 0.00 | 0.00 | 66 | 1016.2 |
| 20260503214916 | 12 | 310 | 0.0 | 0.0 | 0.00 | 0.00 | 0.00 | 66 | 1016.1 |
| 20260503213917 | 12 | 310 | 0.0 | 0.0 | 0.00 | 0.00 | 0.00 | 65 | 1016.1 |
| 20260503212916 | 12 | 310 | 0.0 | 0.0 | 0.00 | 0.00 | 0.00 | 64 | 1016.1 |
| 20260503211916 | 12 | 330 | 0.0 | 0.0 | 0.00 | 0.00 | 0.00 | 63 | 1016.1 |
| 20260503210916 | 12 | 108 | 0.0 | 0.0 | 0.00 | 0.00 | 0.00 | 62 | 1016.1 |
| 20260503205916 | 12 | 93 | 0.0 | 0.0 | 0.00 | 0.00 | 0.00 | 62 | 1016.1 |
| 20260503204916 | 12 | 155 | 0.0 | 0.0 | 0.00 | 0.00 | 0.00 | 61 | 1016.1 |
| 20260503203917 | 13 | 200 | 0.0 | 0.0 | 0.00 | 0.00 | 0.00 | 60 | 1016.1 |
| 20260503202917 | 13 | 200 | 0.0 | 0.0 | 0.00 | 0.00 | 0.00 | 58 | 1016.0 |
| 20260503201917 | 13 | 200 | 0.0 | 0.0 | 0.00 | 0.00 | 0.00 | 58 | 1016.0 |
| 20260503200916 | 13 | 200 | 0.0 | 0.0 | 0.00 | 0.00 | 0.00 | 59 | 1016.0 |
| 20260503195916 | 13 | 120 | 0.0 | 0.0 | 0.00 | 0.00 | 0.00 | 56 | 1015.9 |
| 20260503194917 | 13 | 85 | 0.0 | 0.0 | 0.00 | 0.00 | 0.00 | 57 | 1015.9 |
| 20260503193917 | 13 | 138 | 6.4 | 0.0 | 0.00 | 0.00 | 0.00 | 56 | 1015.7 |
| 20260503192916 | 13 | 208 | 11.3 | 0.0 | 0.00 | 0.00 | 0.00 | 54 | 1015.7 |
| 20260503191917 | 14 | 23 | 9.7 | 0.0 | 0.00 | 0.00 | 0.00 | 53 | 1015.6 |
| 20260503190916 | 14 | 223 | 0.0 | 0.0 | 0.00 | 0.00 | 0.00 | 54 | 1015.5 |
| 20260503185916 | 14 | 185 | 17.7 | 0.0 | 0.00 | 0.00 | 0.00 | 54 | 1015.3 |
| 20260503184916 | 14 | 293 | 11.3 | 0.0 | 0.00 | 0.00 | 0.00 | 53 | 1015.2 |
| 20260503183916 | 14 | 358 | 16.1 | 0.0 | 0.00 | 0.00 | 0.00 | 53 | 1015.2 |
| 20260503182916 | 14 | 120 | 8.0 | 0.0 | 0.00 | 0.00 | 0.00 | 54 | 1015.3 |
| 20260503181916 | 14 | 205 | 11.3 | 0.0 | 0.00 | 0.00 | 0.00 | 54 | 1015.2 |
| 20260503180916 | 14 | 240 | 20.9 | 0.0 | 0.00 | 0.00 | 0.00 | 54 | 1015.2 |
| 20260503175916 | 14 | 345 | 6.4 | 0.0 | 0.00 | 0.00 | 0.00 | 56 | 1015.1 |
| 20260503174916 | 14 | 160 | 9.7 | 0.0 | 0.00 | 0.00 | 0.00 | 58 | 1015.2 |
| 20260503173917 | 14 | 175 | 6.4 | 0.0 | 0.00 | 0.00 | 0.00 | 60 | 1015.2 |
| 20260503172916 | 14 | 313 | 8.0 | 0.0 | 0.00 | 0.00 | 0.00 | 61 | 1015.6 |
| 20260503171917 | 14 | 173 | 8.0 | 0.0 | 0.00 | 0.00 | 0.00 | 58 | 1016.0 |
| 20260503170916 | 15 | 213 | 16.1 | 0.0 | 0.00 | 0.00 | 0.00 | 53 | 1015.7 |
| 20260503150917 | 20 | 348 | 16.1 | 0.0 | 0.00 | 0.00 | 0.00 | 42 | 1014.7 |
| 20260503130916 | 22 | 320 | 8.0 | 0.0 | 0.00 | 0.00 | 0.00 | 41 | 1015.1 |